Location: Kitchener-Waterloo
(43.4500°N, 80.5000°W)
Time: 19:54:43
(UTC-04:00)

ISS - All Passes

Search period start: 24 March 2017 00:00
Search period end: 03 April 2017 00:00
Orbit: 399 x 409 km, 51.6° (Epoch: 25 March)

Date Brightness Start Highest point End Pass type
(mag) Time Alt. Az. Time Alt. Az. Time Alt. Az.
24 Mar - 01:31:26 10° NW 01:33:57 20° N 01:36:29 10° NE night (unlit)
24 Mar - 03:08:24 10° NW 03:11:12 25° NNE 03:14:00 10° ENE night (unlit)
24 Mar - 04:44:40 10° WNW 04:48:00 86° SSW 04:51:17 10° SE visible
24 Mar - 06:22:51 10° WSW 06:23:59 11° SW 06:25:06 10° SSW visible
24 Mar - 21:26:25 10° S 21:28:22 15° SE 21:30:19 10° E night (unlit)
24 Mar - 23:01:12 10° WSW 23:04:28 73° NNW 23:07:45 10° NE night (unlit)
25 Mar - 00:38:40 10° WNW 00:41:20 22° NNW 00:44:02 10° NE night (unlit)
25 Mar - 02:16:01 10° NW 02:18:37 21° N 02:21:12 10° ENE night (unlit)
25 Mar - 03:52:20 10° NW 03:55:35 55° NNE 03:58:50 10° ESE night (unlit)
25 Mar - 05:29:17 10° W 05:31:50 21° SW 05:34:23 10° S visible
25 Mar - 22:08:52 10° SW 22:12:06 63° SE 22:15:21 10° ENE visible
25 Mar - 23:45:53 10° W 23:48:46 28° NNW 23:51:40 10° NE night (unlit)
26 Mar - 01:23:31 10° NW 01:25:59 19° N 01:28:27 10° NE night (unlit)
26 Mar - 03:00:01 10° NW 03:03:06 36° NNE 03:06:12 10° E night (unlit)
26 Mar - 04:36:31 10° WNW 04:39:36 37° SW 04:42:41 10° SSE night (unlit)
26 Mar - 21:16:50 10° SSW 21:19:47 33° SE 21:22:47 10° ENE visible
26 Mar - 22:53:08 10° W 22:56:14 38° NNW 22:59:21 10° NE visible
27 Mar - 00:30:51 10° NW 00:33:20 19° N 00:35:50 10° NE night (unlit)
27 Mar - 02:07:41 10° NW 02:10:34 27° NNE 02:13:25 10° ENE night (unlit)
27 Mar - 03:43:59 10° WNW 03:47:17 71° SW 03:50:33 10° SE night (unlit)
27 Mar - 20:25:14 10° S 20:27:33 18° SE 20:29:53 10° E visible
27 Mar - 22:00:30 10° WSW 22:03:45 61° NNW 22:07:00 10° NE visible
27 Mar - 23:38:05 10° WNW 23:40:41 21° N 23:43:18 10° NE night (unlit)
28 Mar - 01:15:18 10° NW 01:17:56 22° N 01:20:36 10° ENE night (unlit)
28 Mar - 02:51:35 10° NW 02:54:52 66° NNE 02:58:09 10° ESE night (unlit)
28 Mar - 04:28:47 10° W 04:31:01 17° SW 04:33:14 10° S night (unlit)
28 Mar - 21:08:04 10° SW 21:11:18 77° SSE 21:14:36 10° ENE visible
28 Mar - 22:45:15 10° WNW 22:48:03 25° NNW 22:50:52 10° NE visible
29 Mar - 00:22:48 10° NW 00:25:18 19° N 00:27:47 10° NE night (unlit)
29 Mar - 01:59:13 10° NW 02:02:22 41° NNE 02:05:31 10° E night (unlit)
29 Mar - 03:35:49 10° WNW 03:38:46 30° SW 03:41:43 10° SSE night (unlit)
29 Mar - 20:15:52 10° SSW 20:18:56 41° SE 20:22:03 10° ENE visible
29 Mar - 21:52:26 10° W 21:55:28 34° NNW 21:58:30 10° NE visible
29 Mar - 23:30:10 10° NW 23:32:36 19° N 23:35:03 10° NE visible
30 Mar - 01:06:52 10° NW 01:09:48 29° NNE 01:12:44 10° E night (unlit)
30 Mar - 02:43:11 10° WNW 02:46:26 57° SW 02:49:40 10° SE night (unlit)
30 Mar - 19:24:04 10° S 19:26:39 22° SE 19:29:16 10° E daylight
30 Mar - 20:59:43 10° WSW 21:02:55 51° NNW 21:06:08 10° NE visible
30 Mar - 22:37:22 10° WNW 22:39:55 20° N 22:42:28 10° NE visible
31 Mar - 00:14:27 10° NW 00:17:10 23° NNE 00:19:52 10° ENE night (unlit)
31 Mar - 01:50:43 10° NW 01:54:01 79° NNE 01:57:18 10° ESE night (unlit)
31 Mar - 03:28:17 10° W 03:30:05 14° SW 03:31:51 10° SSW night (unlit)
31 Mar - 18:33:03 10° SSE 18:34:25 12° SE 18:35:47 10° ESE daylight
31 Mar - 20:07:10 10° WSW 20:10:25 87° NNW 20:13:42 10° ENE daylight
31 Mar - 21:44:30 10° WNW 21:47:14 24° NNW 21:49:58 10° NE visible
31 Mar - 23:21:57 10° NW 23:24:29 20° N 23:27:00 10° ENE visible
01 Apr - 00:58:18 10° NW 01:01:30 47° NNE 01:04:42 10° ESE night (unlit)
01 Apr - 02:35:03 10° W 02:37:50 25° SW 02:40:35 10° SSE night (unlit)
01 Apr - 19:14:50 10° SW 19:18:00 50° SE 19:21:11 10° ENE daylight
01 Apr - 20:51:38 10° W 20:54:35 30° NNW 20:57:32 10° NE visible
01 Apr - 22:29:19 10° NW 22:31:45 19° N 22:34:12 10° NE visible
02 Apr - 00:05:54 10° NW 00:08:55 32° NNE 00:11:55 10° E night (unlit)
02 Apr - 01:42:18 10° WNW 01:45:28 46° SW 01:48:38 10° SE night (unlit)
02 Apr - 18:22:50 10° SSW 18:25:38 27° SE 18:28:27 10° ENE daylight
02 Apr - 19:58:51 10° W 20:01:58 44° NNW 20:05:08 10° NE daylight
02 Apr - 21:36:32 10° NW 21:39:02 20° N 21:41:31 10° NE visible
02 Apr - 23:13:29 10° NW 23:16:15 24° NNE 23:19:02 10° ENE visible
